TimeBST,TemperatureF,Dew PointF,Humidity,Sea Level PressureIn,VisibilityMPH,Wind Direction,Wind SpeedMPH,Gust SpeedMPH,PrecipitationIn,Events,Conditions,WindDirDegrees,DateUTC
12:50 AM,53,50,84,29.86,12,SSW,8.1,,,,Scattered Clouds,210,2012-10-19 23:50:00
12:50 AM,51.8,50.0,94,29.86,6.2,SSW,8.1,-,N/A,,Partly Cloudy,210,2012-10-19 23:50:00
1:50 AM,53.6,50.0,88,29.86,6.2,SSW,6.9,-,N/A,,Haze,210,2012-10-20 00:50:00
2:50 AM,53.6,50.0,88,29.86,6.2,SW,8.1,-,N/A,,Scattered Clouds,220,2012-10-20 01:50:00
3:50 AM,53,50,87,29.89,12,SW,8.1,,,,Mostly Cloudy,220,2012-10-20 02:50:00
3:50 AM,53.6,50.0,88,29.89,6.2,SW,8.1,-,N/A,,Mostly Cloudy,220,2012-10-20 02:50:00
4:50 AM,53.6,50.0,88,29.89,6.2,SW,10.4,-,N/A,,Scattered Clouds,230,2012-10-20 03:50:00
5:50 AM,53.6,50.0,88,29.92,6.2,SW,6.9,-,N/A,,Scattered Clouds,220,2012-10-20 04:50:00
6:50 AM,53,50,87,29.93,12,SSW,5.8,,,,Partly Cloudy,200,2012-10-20 05:50:00
6:50 AM,53.6,50.0,88,29.92,6.2,SSW,5.8,-,N/A,,Scattered Clouds,200,2012-10-20 05:50:00
7:50 AM,51.8,50.0,94,29.95,6.2,SSW,5.8,-,N/A,Fog,Shallow Fog,200,2012-10-20 06:50:00
8:50 AM,53.6,50.0,88,29.95,6.2,SSW,5.8,-,N/A,Fog,Shallow Fog,210,2012-10-20 07:50:00
9:50 AM,55,52,86,29.98,16,South,3.5,,,,Partly Cloudy,180,2012-10-20 08:50:00
9:50 AM,55.4,51.8,88,29.95,6.2,South,3.5,-,N/A,,Scattered Clouds,180,2012-10-20 08:50:00
10:50 AM,57.2,53.6,88,29.98,6.2,SSW,6.9,-,N/A,,Scattered Clouds,210,2012-10-20 09:50:00
11:50 AM,57.2,53.6,88,29.98,6.2,SSW,9.2,-,N/A,,Scattered Clouds,210,2012-10-20 10:50:00
12:50 PM,59,54,78,29.99,19,SSW,9.2,,,,Partly Cloudy,200,2012-10-20 11:50:00
12:50 PM,59.0,53.6,82,29.98,6.2,SSW,9.2,-,N/A,,Scattered Clouds,200,2012-10-20 11:50:00
1:50 PM,59.0,53.6,82,29.98,6.2,SSW,8.1,-,N/A,,Partly Cloudy,200,2012-10-20 12:50:00
2:50 PM,59.0,53.6,82,29.98,6.2,SSW,10.4,-,N/A,,Scattered Clouds,210,2012-10-20 13:50:00
3:50 PM,59,53,74,29.99,19,SSW,8.1,,,,Partly Cloudy,200,2012-10-20 14:50:00
3:50 PM,59.0,53.6,82,29.98,6.2,SSW,8.1,-,N/A,,Partly Cloudy,200,2012-10-20 14:50:00
4:50 PM,59.0,53.6,82,29.98,6.2,SSE,10.4,-,N/A,,Scattered Clouds,160,2012-10-20 15:50:00
5:50 PM,55.4,51.8,88,29.98,6.2,SSE,6.9,-,N/A,,Partly Cloudy,160,2012-10-20 16:50:00
6:50 PM,53,51,91,30.02,16,SSE,8.1,,,,Scattered Clouds,150,2012-10-20 17:50:00
6:50 PM,53.6,51.8,94,30.01,6.2,SSE,8.1,-,N/A,,Partly Cloudy,150,2012-10-20 17:50:00
7:50 PM,50.0,48.2,94,30.01,6.2,SE,8.1,-,N/A,,Partly Cloudy,140,2012-10-20 18:50:00
8:50 PM,48.2,46.4,93,30.01,6.2,ESE,8.1,-,N/A,,Partly Cloudy,120,2012-10-20 19:50:00
9:50 PM,46.4,46.4,100,30.01,6.2,ESE,6.9,-,N/A,,Partly Cloudy,110,2012-10-20 20:50:00
10:50 PM,46.4,46.4,100,30.01,6.2,SE,10.4,-,N/A,,Partly Cloudy,130,2012-10-20 21:50:00
11:50 PM,44.6,44.6,100,30.01,6.2,ESE,5.8,-,N/A,,Partly Cloudy,110,2012-10-20 22:50:00